Theta_e
279 278 277 276 276 274 275 274 274 274 275 274 275 275 278 279 280 280 280 281 282 282 283 283 284 284 284 286 287 288 289 290 293 292 292 293 292 292 291 291 291 291 290
278 277 277 276 275 274 275 274 273 273 274 274 274 275 278 278 279 279 279 280 281 281 282 282 283 283 283 286 287 287 288 289 290 292 291 292 291 291 291 291 290 290 290
277 277 276 275 274 274 274 273 273 273 274 274 274 275 277 278 279 279 279 279 280 280 281 281 282 282 282 285 287 287 287 288 289 290 291 290 289 290 289 290 289 289 289
276 276 275 275 274 273 273 273 272 272 273 273 274 275 276 278 279 279 278 278 279 279 280 280 281 281 281 285 287 287 286 287 289 290 290 289 289 288 289 289 288 287 287
276 276 275 274 273 273 273 272 272 272 273 273 273 275 277 278 279 279 277 277 277 278 279 279 280 282 283 284 287 287 286 287 288 290 290 289 288 288 288 288 287 286 286
275 275 275 274 272 273 272 272 272 272 272 272 273 274 276 277 279 279 277 276 277 276 277 277 279 281 283 284 286 287 286 286 286 287 288 289 288 288 288 288 286 286 285
275 275 274 273 272 273 272 272 272 272 272 271 272 273 274 275 278 278 276 275 276 275 275 276 277 279 282 284 286 287 286 286 286 286 286 286 286 287 288 287 288 287 285
274 274 273 273 272 273 272 272 272 271 271 272 272 272 273 274 276 277 276 274 275 274 274 274 275 278 280 284 285 286 286 285 285 285 285 285 286 287 288 288 287 286 285
273 274 273 273 273 272 272 272 271 271 271 272 272 272 272 273 274 277 276 274 274 274 274 274 274 277 280 284 285 286 286 285 284 284 284 285 286 286 287 287 286 285 285
274 274 273 273 272 272 272 271 271 271 271 271 272 272 272 273 273 276 275 273 274 273 273 274 274 277 281 283 284 285 285 284 284 284 284 284 284 285 285 286 286 287 285
274 273 273 272 272 272 271 271 271 271 271 271 272 273 273 273 273 275 274 273 274 272 271 272 275 278 280 281 282 284 284 284 283 283 283 283 283 283 283 284 285 285 284
273 273 272 272 271 271 271 271 271 271 271 271 271 272 273 273 273 273 273 273 273 270 270 272 274 277 278 279 281 283 284 284 283 283 282 283 283 283 281 281 282 283 283
272 272 272 271 271 271 271 271 271 271 271 271 270 271 272 273 273 272 271 271 271 270 270 270 273 277 280 282 281 282 283 282 282 282 282 282 283 283 282 281 281 281 282
272 272 271 271 270 270 270 271 271 271 271 271 271 270 271 273 273 272 271 270 269 270 272 274 275 277 279 280 281 281 281 281 280 281 282 282 283 283 282 282 282 281 281
272 271 271 271 271 270 270 270 271 271 271 271 271 271 271 273 273 273 271 270 269 269 272 274 275 275 276 277 278 279 280 281 280 281 282 282 282 282 282 281 282 282 281
270 270 270 270 270 270 270 270 271 271 272 271 272 272 271 273 273 272 270 270 267 268 270 268 268 268 269 270 272 276 277 278 279 279 280 281 281 282 282 282 282 282 281
271 270 271 270 270 270 270 270 270 270 270 270 270 270 271 272 271 271 269 268 267 268 267 266 266 266 267 269 270 272 273 275 277 279 279 279 280 281 281 281 282 281 280
272 272 271 271 270 270 270 269 269 269 268 268 269 269 269 270 270 269 269 270 269 267 266 266 265 266 266 268 270 271 273 275 276 278 278 278 279 280 280 281 281 281 279
272 272 272 271 271 270 269 269 269 269 268 268 268 269 269 269 268 268 269 269 268 267 266 266 266 266 267 267 269 270 272 273 273 276 277 278 278 279 279 280 280 281 279
272 272 272 271 270 269 269 269 269 269 268 268 268 268 269 269 268 268 268 268 268 268 267 267 267 267 267 267 268 269 271 273 273 275 276 277 277 278 278 279 279 280 279
271 271 271 271 270 270 270 270 269 269 268 268 267 267 268 269 268 268 267 267 267 268 267 267 268 268 268 268 268 269 269 271 272 273 275 276 277 277 279 279 280 280 280
271 271 271 271 270 270 270 269 269 269 268 268 267 267 267 268 268 268 268 267 266 267 267 267 268 268 269 268 268 269 269 269 271 273 274 275 276 277 278 279 279 280 280
271 271 271 270 270 270 269 269 268 268 268 268 267 267 267 267 268 268 268 267 267 266 266 267 267 268 268 269 269 269 269 269 269 271 273 274 275 276 277 278 279 279 280
271 271 271 270 270 269 269 269 269 268 268 267 267 267 267 267 267 268 268 268 267 267 267 266 267 267 268 269 269 269 269 269 269 269 271 274 275 275 277 278 279 279 279
271 270 270 270 269 269 269 269 269 268 268 268 268 267 266 266 267 267 268 268 268 268 267 267 267 267 267 268 269 270 270 269 269 269 270 272 274 275 276 277 278 279 279
270 270 270 270 269 269 269 269 269 268 268 268 267 267 266 266 266 267 267 267 268 268 268 268 267 267 267 268 269 269 270 271 269 269 270 270 272 275 276 277 278 278 279
Wind_Speed
4 2 4 5 8 11 14 15 17 17 18 19 19 17 16 20 22 24 24 21 22 23 25 28 28 28 28 29 29 24 17 13 3 2 1 3 8 7 8 8 7 6 6
5 4 4 4 7 10 13 15 16 16 17 17 17 16 14 19 23 23 21 20 21 22 24 27 28 30 29 30 29 24 20 14 6 3 2 1 5 9 9 9 7 6 4
8 6 5 5 6 10 12 13 14 14 16 17 17 16 13 18 23 23 20 18 19 19 21 27 28 30 31 32 28 25 24 17 10 5 2 1 2 9 10 9 7 6 5
11 9 6 5 6 9 10 11 12 13 15 15 16 14 13 17 21 21 23 18 17 17 19 25 25 30 33 34 29 27 25 21 15 7 2 2 1 4 8 10 8 5 5
14 11 8 6 6 8 9 11 12 12 13 14 15 13 14 18 21 21 22 17 21 18 19 23 23 26 30 31 31 27 25 22 18 12 4 2 2 2 3 6 7 10 8
17 14 11 8 8 9 10 11 10 10 12 14 14 13 14 19 20 20 20 18 16 22 20 24 24 27 32 34 28 23 20 23 19 14 11 8 9 4 5 11 16 8 2
20 17 13 11 10 11 10 9 10 11 13 16 17 14 14 17 20 20 20 19 15 21 20 23 23 26 30 36 29 23 20 18 17 17 14 14 9 6 3 10 7 3 4
23 20 16 14 13 12 10 10 11 12 15 18 18 17 14 17 20 21 19 22 16 20 19 20 20 24 29 32 28 24 20 19 17 16 14 14 11 8 2 5 8 12 14
25 22 19 16 15 14 12 12 13 14 14 16 18 20 17 16 20 23 22 20 18 21 19 19 19 25 28 27 26 24 19 18 14 13 13 12 12 7 7 10 12 9 2
29 25 21 19 16 15 13 12 12 13 13 14 16 18 19 16 20 24 25 21 18 20 20 18 19 21 23 24 25 22 17 16 15 16 18 19 18 14 10 6 3 6 6
30 27 23 20 18 16 14 12 11 12 12 13 15 17 19 20 19 24 25 22 20 19 19 21 20 22 20 21 21 21 18 14 14 14 15 16 17 19 17 13 8 6 5
33 29 25 22 19 17 14 13 11 11 12 14 16 19 21 20 19 23 25 21 20 19 18 17 19 16 17 17 19 17 16 17 17 18 17 16 16 14 15 14 13 13 12
35 31 27 23 20 17 15 13 11 10 13 14 16 17 21 22 19 22 25 22 20 18 15 13 13 14 16 18 20 20 20 22 22 20 18 15 13 12 12 18 16 17 16
38 34 29 25 22 18 15 12 11 11 11 10 12 14 18 22 20 24 27 25 23 20 15 14 14 16 18 19 21 24 25 23 22 21 19 15 14 16 16 9 11 16 21
38 35 31 27 24 20 16 13 10 7 7 8 9 11 14 19 19 20 22 23 22 17 12 16 20 21 23 23 24 25 26 25 26 24 21 19 18 18 15 16 19 20 18
39 36 33 29 25 22 19 15 8 5 5 5 6 7 9 10 13 16 18 19 20 14 18 24 24 24 24 24 25 26 27 26 26 24 22 22 19 17 16 14 13 16 17
39 37 34 31 27 24 20 18 16 10 5 5 5 7 7 9 10 12 14 17 19 19 25 23 22 22 22 22 22 23 23 24 23 24 24 22 20 19 17 15 13 13 15
39 38 36 33 29 25 21 18 14 13 11 6 3 3 6 7 8 10 12 15 22 24 23 22 21 19 19 20 20 21 21 22 25 24 25 25 22 19 18 17 14 13 13
39 38 34 32 27 24 21 18 15 13 11 8 4 2 2 4 5 7 10 15 17 19 19 19 18 17 17 16 17 17 18 19 22 24 25 25 25 22 19 19 14 12 11
37 37 34 31 27 24 22 19 16 13 10 8 6 4 1 2 3 6 8 9 11 13 14 16 17 17 16 15 14 15 15 16 19 21 23 23 24 24 21 19 18 14 14
39 36 34 31 30 28 26 22 17 14 12 10 7 4 1 2 2 3 4 5 7 8 10 12 14 16 16 16 14 13 13 14 15 17 19 21 23 24 23 20 18 15 13
40 38 36 35 32 28 25 20 18 15 12 11 9 7 6 4 3 2 2 2 4 5 7 8 10 13 15 16 16 14 12 11 12 14 15 17 20 23 23 21 20 17 15
42 40 38 35 32 29 25 22 19 17 14 11 10 8 8 7 6 6 5 4 3 3 5 5 6 7 10 13 15 15 13 11 10 11 12 14 18 21 22 22 20 19 17
41 40 39 36 33 30 27 24 20 17 14 12 11 10 9 9 9 9 8 7 6 5 5 5 6 6 6 8 11 14 14 11 10 9 9 11 14 17 19 20 19 17 13
40 39 37 35 33 31 27 23 20 18 16 14 13 12 10 10 11 10 10 10 9 8 7 7 7 6 6 6 7 9 11 12 12 10 7 7 9 11 14 16 18 17 15
39 37 35 32 31 29 27 24 22 19 18 16 14 13 12 12 12 12 12 12 11 10 10 9 9 8 7 6 6 6 7 10 13 13 10 6 4 5 9 13 16 17 15
Wind_Direction
155 101 64 30 17 18 15 11 14 11 11 8 3 4 12 15 11 10 5 2 1 357 358 359 359 356 353 353 356 355 352 353 321 330 39 91 166 189 157 160 159 151 141
160 133 93 48 29 26 21 17 19 17 17 13 6 5 14 16 17 9 2 1 1 360 356 356 357 356 355 355 355 351 353 353 320 317 337 121 152 181 173 164 154 145 138
163 149 123 74 45 39 29 26 25 24 26 21 16 11 18 17 18 13 2 0 360 359 358 355 356 356 353 351 353 353 356 352 350 323 342 76 131 171 165 154 148 146 143
163 153 136 95 61 52 43 41 40 34 34 33 26 23 25 25 12 11 6 2 2 358 357 357 4 2 354 350 355 357 357 356 5 356 7 53 79 176 187 160 144 147 135
165 158 145 117 89 72 65 64 57 47 42 36 29 40 38 31 10 10 4 6 8 3 4 355 7 9 8 357 1 2 6 6 9 12 30 42 53 116 190 168 147 141 115
165 157 148 130 113 92 82 72 66 57 47 43 39 39 40 32 11 8 4 7 360 7 360 356 7 10 13 3 6 11 16 19 16 20 23 39 36 67 130 155 141 137 101
166 157 148 138 131 110 100 92 78 58 49 48 43 42 38 31 15 11 8 7 1 3 6 1 359 9 10 360 4 15 21 26 34 46 40 34 23 32 136 154 159 137 123
165 158 155 148 141 125 117 101 84 69 57 53 45 38 32 29 14 11 10 11 8 2 7 4 2 7 4 355 2 8 22 27 31 40 48 44 37 33 116 159 157 132 134
166 163 157 153 149 134 128 107 92 80 69 57 47 38 34 26 12 11 8 9 6 359 4 7 6 8 356 359 7 8 17 25 41 46 52 53 58 73 102 129 132 137 127
171 163 159 158 151 143 128 113 96 83 73 63 54 46 38 27 17 12 7 6 1 356 356 5 7 1 358 5 16 15 22 25 38 51 59 58 58 60 69 84 168 188 135
166 162 162 160 155 144 136 122 109 93 83 70 59 45 40 33 23 10 8 8 4 359 355 0 16 5 4 11 20 24 28 32 41 46 52 55 54 52 50 55 78 126 114
168 164 163 162 158 148 144 129 116 100 80 61 48 45 35 32 27 10 9 10 4 0 358 9 12 6 12 22 30 39 47 43 39 38 37 45 45 41 40 52 66 78 88
168 165 166 164 162 154 150 140 123 101 76 60 47 32 29 27 27 10 13 11 14 11 12 12 14 35 47 48 45 47 47 47 29 27 23 33 45 49 59 63 68 72 76
169 167 168 168 165 159 157 147 127 101 83 64 51 34 26 26 19 16 11 9 16 24 30 46 53 55 57 53 48 47 43 42 38 23 27 37 50 55 58 57 66 69 73
171 169 172 172 170 166 166 150 136 112 81 60 46 39 26 21 17 15 16 15 16 21 40 55 53 50 48 47 45 42 41 37 35 31 23 36 46 58 64 67 75 78 75
169 170 174 175 174 174 166 155 141 119 126 79 68 42 35 24 19 19 22 25 30 36 55 51 46 42 41 38 36 35 38 35 33 34 35 26 38 48 60 66 70 71 71
170 173 175 177 176 175 176 170 160 153 134 90 69 57 44 31 30 28 31 36 41 46 54 50 45 39 36 36 37 36 30 34 36 37 39 36 33 44 51 58 65 63 60
179 178 177 180 179 178 179 174 170 174 175 167 145 67 48 43 41 39 35 34 45 46 47 45 42 36 37 36 35 33 34 39 40 36 38 36 36 35 42 43 51 58 64
179 179 181 181 181 180 179 174 171 167 161 149 143 139 57 57 46 41 38 41 44 43 43 43 40 36 36 38 39 38 35 36 39 38 36 34 36 40 33 39 49 57 66
182 183 182 180 180 182 186 183 179 176 173 163 156 148 45 65 64 46 40 46 43 42 40 38 39 36 34 35 35 38 37 37 37 38 37 33 34 38 37 40 41 55 57
182 182 183 183 186 190 191 192 188 187 188 178 176 173 329 318 356 21 36 27 37 37 34 30 31 33 34 36 35 35 36 34 33 34 35 33 31 33 37 42 40 40 50
182 183 184 188 192 195 197 197 196 198 202 197 186 191 207 246 259 267 310 350 3 7 23 24 20 22 24 29 34 34 31 29 30 34 34 31 31 33 38 38 42 43 49
185 185 188 192 195 198 199 201 206 211 210 213 205 206 215 227 241 244 245 270 287 319 336 359 14 15 17 20 24 28 30 29 30 29 28 29 29 32 33 34 34 37 41
189 189 191 194 197 201 204 206 212 221 221 221 224 222 219 222 229 237 241 248 264 278 296 317 338 354 7 14 17 23 28 33 25 19 21 24 24 28 31 34 37 41 40
191 193 195 197 199 204 206 212 218 224 229 230 228 227 228 233 226 228 236 242 249 260 272 289 306 321 332 346 2 19 23 29 26 18 3 14 16 20 29 35 35 41 40
194 196 197 201 205 209 211 216 220 226 233 239 237 230 228 232 230 230 234 239 244 249 261 274 287 295 302 310 329 347 9 14 17 15 17 359 356 6 20 31 38 42 41